[[{"header":{"parameterUnit":"m.s-1","parameterCategory":1,"la1":30.2991,"la2":30.254,"lo1":-89.0895,"lo2":-89.0444,"dy":0.0017,"dx":0.0017,"nx":28,"ny":28,"refTime":"2024-05-04T21:00:00:Z","depth":0,"parameterNumber":2,"parameterNumberName":"U-component_of_WINDS"},"data":[0,0,0,0,0,0,0,0,0,0,0,0,0,0,0,0,0,0,0,0,0,0,0,0,0,0,0,0,0,0,0,0,0,0,0,0,0,0,0,0,0,0,0,0,0,0,0,0,0,0,0,0,0,0,0,0,0,0,-1.3526,-1.3527,0,-1.3591,-1.3592,-1.3593,-1.3613,-1.3613,-1.3612,-1.3612,-1.3681,-1.3683,-1.3686,0,0,0,0,0,0,0,0,0,0,0,0,0,-1.3422,-1.3424,-1.3526,-1.3527,-1.3528,-1.3591,-1.3592,-1.3593,-1.3613,-1.3613,-1.3612,-1.3612,-1.3681,-1.3683,-1.3686,0,0,0,0,0,0,0,0,0,0,0,0,0,-1.3475,-1.3424,-1.3526,-1.3545,-1.3548,-1.3591,-1.3592,-1.3593,-1.3613,-1.3613,-1.3612,-1.3612,-1.368,-1.3683,-1.3686,-1.3716,0,0,-1.3696,-1.3697,0,0,0,0,0,0,0,0,-1.3472,-1.3479,-1.3542,-1.3544,-1.3547,-1.3593,-1.3581,-1.3635,-1.3613,-1.3588,-1.3612,-1.3611,-1.3653,-1.3658,-1.3672,-1.3719,-1.3722,-1.3696,-1.3698,-1.37,-1.3701,0,0,0,0,0,0,0,-1.3469,-1.3476,-1.3552,-1.3543,-1.3546,-1.3552,-1.3559,-1.3591,-1.3623,-1.359,-1.3592,-1.3599,-1.3654,-1.3668,-1.3673,-1.3723,-1.3696,-1.3699,-1.3701,-1.3702,-1.38,-1.3801,0,0,0,0,0,0,-1.3461,-1.3473,-1.355,-1.3554,-1.3507,-1.3554,-1.3562,-1.3579,-1.3622,-1.3628,-1.36,-1.36,-1.3663,-1.367,-1.3676,-1.3714,-1.37,-1.3703,-1.3705,-1.3799,-1.38,-1.3801,0,0,0,0,0,0,-1.3459,-1.3468,-1.3547,-1.3514,-1.3525,-1.3556,-1.3575,-1.3581,-1.3595,-1.3629,-1.3635,-1.3608,-1.3663,-1.3671,-1.3706,-1.3717,-1.3704,-1.3707,-1.3799,-1.38,-1.3801,-1.379,0,0,0,0,0,0,-1.3456,-1.3467,-1.3478,-1.3514,-1.3526,-1.3575,-1.3576,-1.3582,-1.36,-1.3601,-1.3639,-1.3645,-1.3663,-1.3701,-1.3709,-1.3721,-1.371,-1.3798,-1.3799,-1.38,-1.379,-1.3791,-1.3792,0,0,0,0,0,-1.3452,-1.3473,-1.3478,-1.3487,-1.354,-1.3576,-1.3583,-1.3603,-1.3601,-1.3613,-1.3635,-1.3644,-1.3714,-1.3704,-1.3714,-1.3727,-1.3797,-1.3799,-1.38,-1.379,-1.3791,-1.3792,0,0,0,0,0,0,-1.3437,-1.3478,-1.3484,-1.3517,-1.3543,-1.3579,-1.3594,-1.3604,-1.3631,-1.3631,-1.3656,-1.3664,-1.3697,-1.3716,-1.3704,-1.3759,-1.3756,-1.376,-1.3745,-1.3746,-1.3747,-1.3742,-1.3712,0,0,0,0,0,-1.3438,-1.3462,-1.3497,-1.3522,-1.3535,-1.3562,-1.3579,-1.3592,-1.362,-1.3631,-1.3656,-1.3683,-1.3712,-1.373,-1.3759,-1.3793,-1.3802,-1.3807,-1.3808,-1.3808,-1.3811,-1.3831,-1.3834,-1.3806,-1.3806,-1.3806,0,0,-1.3439,-1.3464,-1.3478,-1.352,-1.3541,-1.3567,-1.3571,-1.3598,-1.3618,-1.3635,-1.3669,-1.3689,-1.3721,-1.3756,-1.3773,-1.3773,-1.3821,-1.381,-1.381,-1.3813,-1.3833,-1.3836,-1.3838,-1.3807,-1.3807,-1.3806,0,0,-1.3454,-1.3476,-1.35,-1.3521,-1.3553,-1.3572,-1.3578,-1.3613,-1.3626,-1.366,-1.3674,-1.3699,-1.3747,-1.377,-1.3788,-1.3814,-1.3823,-1.3822,-1.3827,-1.3847,-1.3849,-1.3851,-1.3861,-1.3864,-1.3825,-1.3825,-1.3825,0,-1.3452,-1.349,-1.3511,-1.3537,-1.3556,-1.3572,-1.3597,-1.3618,-1.3658,-1.3671,-1.367,-1.3732,-1.3755,-1.3795,-1.3802,-1.3816,-1.3824,-1.3818,-1.3847,-1.3849,-1.3851,-1.3861,-1.3864,-1.3825,-1.3825,-1.3825,-1.3825,0,-1.3486,-1.3513,-1.3529,-1.3566,-1.3587,-1.3612,-1.3638,-1.3656,-1.3668,-1.3687,-1.3722,-1.3751,-1.3785,-1.3796,-1.3808,-1.3839,-1.3838,-1.3842,-1.384,-1.3853,-1.3863,-1.3866,-1.3824,-1.3824,-1.3824,-1.3824,0,0,-1.3494,-1.3543,-1.3548,-1.3566,-1.3603,-1.3625,-1.3652,-1.3685,-1.37,-1.3728,-1.3752,-1.3793,-1.3797,-1.3817,-1.3832,-1.385,-1.3869,-1.3851,-1.3853,-1.3854,-1.3905,-1.3902,-1.3906,-1.3875,-1.3876,-1.3877,-1.3902,0,-1.3514,-1.3562,-1.3581,-1.362,-1.3646,-1.3662,-1.3686,-1.3712,-1.3731,-1.3756,-1.3777,-1.3806,-1.3809,-1.3821,-1.3839,-1.3862,-1.3879,-1.3861,-1.3899,-1.39,-1.3889,-1.391,-1.3907,-1.393,-1.3906,-1.3907,-1.3907,0,-1.3544,-1.3571,-1.3612,-1.3647,-1.3659,-1.3679,-1.3712,-1.3735,-1.3766,-1.3778,-1.3801,-1.3816,-1.3846,-1.3843,-1.3885,-1.3872,-1.3889,-1.3903,-1.3905,-1.3909,-1.3904,-1.3915,-1.3938,-1.3941,-1.3913,-1.3913,-1.3912,0,-1.3545,-1.3592,-1.3623,-1.3638,-1.3679,-1.3694,-1.3712,-1.3742,-1.3761,-1.3789,-1.3802,-1.3834,-1.3852,-1.3877,-1.3901,-1.3896,-1.3941,-1.394,-1.3953,-1.3953,-1.3962,-1.3961,-1.3987,-1.3973,-1.3973,-1.3973,-1.3973,0,-1.3566,-1.3591,-1.3624,-1.3643,-1.3672,-1.3695,-1.3723,-1.3743,-1.3769,-1.3793,-1.381,-1.3833,-1.3862,-1.3888,-1.3907,-1.394,-1.3948,-1.396,-1.3964,-1.3958,-1.3956,-1.3969,-1.3968,-1.3974,-1.3973,-1.3973,-1.3973,0,-1.3572,-1.3596,-1.3631,-1.3667,-1.3677,-1.3696,-1.3728,-1.3748,-1.3767,-1.3798,-1.3806,-1.3838,-1.387,-1.3895,-1.3938,-1.395,-1.3985,-1.399,-1.3974,-1.3977,-1.3989,-1.3987,-1.4024,-1.4031,-1.4011,-1.4012,-1.4012,0,-1.3584,-1.3603,-1.3642,-1.3658,-1.3676,-1.3703,-1.3722,-1.3746,-1.3766,-1.3803,-1.3818,-1.3852,-1.3879,-1.393,-1.3958,-1.399,-1.3996,-1.4007,-1.4002,-1.3995,-1.3997,-1.3996,-1.3998,-1.4008,-1.4008,-1.4008,-1.4008,0,-1.3602,-1.3613,-1.3639,-1.367,-1.3693,-1.3718,-1.3745,-1.3758,-1.3787,-1.3808,-1.3841,-1.3862,-1.3906,-1.3939,-1.3974,-1.3995,-1.4007,-1.401,-1.4015,-1.4008,-1.3998,-1.4004,-1.3976,-1.4009,-1.4008,-1.4008,-1.4008,-1.4008,-1.3612,-1.363,-1.366,-1.3689,-1.3711,-1.3735,-1.3756,-1.3778,-1.3805,-1.3841,-1.3854,-1.3888,-1.392,-1.3969,-1.3989,-1.4017,-1.4018,-1.4025,-1.4027,-1.4028,-1.4027,-1.3994,-1.4023,-1.4023,-1.4023,-1.4023,-1.4023,0,-1.3631,-1.3651,-1.3678,-1.3714,-1.3737,-1.3745,-1.3775,-1.3794,-1.3823,-1.3851,-1.3878,-1.3916,-1.3949,-1.3979,-1.4013,-1.4029,-1.4036,-1.4038,-1.4037,-1.4041,-1.4024,-1.4017,-1.4032,-1.4032,-1.4032,-1.4032,-1.4032,-1.4032,-1.3644,-1.3675,-1.3689,-1.3732,-1.3753,-1.3785,-1.3801,-1.3824,-1.3847,-1.3888,-1.3915,-1.3934,-1.3963,-1.3999,-1.403,-1.4038,-1.405,-1.4051,-1.406,-1.4044,-1.4042,-1.4041,-1.4034,-1.4053,-1.4053,-1.4075,-1.4075,-1.4075]},{"header":{"parameterUnit":"m.s-1","parameterCategory":1,"la1":30.2991,"la2":30.254,"lo1":-89.0895,"lo2":-89.0444,"dy":0.0017,"dx":0.0017,"nx":28,"ny":28,"refTime":"2024-05-04T21:00:00:Z","depth":0,"parameterNumber":3,"parameterNumberName":"V-component_of_WINDS"},"data":[0,0,0,0,0,0,0,0,0,0,0,0,0,0,0,0,0,0,0,0,0,0,0,0,0,0,0,0,0,0,0,0,0,0,0,0,0,0,0,0,0,0,0,0,0,0,0,0,0,0,0,0,0,0,0,0,0,0,4.0923,4.0923,0,4.0926,4.0926,4.0926,4.0879,4.0878,4.0877,4.0875,4.0878,4.0879,4.088,0,0,0,0,0,0,0,0,0,0,0,0,0,4.0876,4.0877,4.0923,4.0923,4.0923,4.0926,4.0926,4.0926,4.0879,4.0878,4.0876,4.0875,4.0877,4.0879,4.088,0,0,0,0,0,0,0,0,0,0,0,0,0,4.0889,4.0877,4.0923,4.09,4.0898,4.0926,4.0926,4.0926,4.088,4.0878,4.0876,4.0874,4.0877,4.0879,4.0881,4.0931,0,0,4.0886,4.0887,0,0,0,0,0,0,0,0,4.0889,4.0891,4.0903,4.0902,4.0899,4.09,4.0911,4.0928,4.088,4.0887,4.0875,4.0873,4.0887,4.0888,4.0893,4.0931,4.0931,4.0887,4.0888,4.0889,4.0889,0,0,0,0,0,0,0,4.0888,4.0891,4.0924,4.0904,4.0901,4.0889,4.0889,4.0914,4.0897,4.0886,4.0882,4.0884,4.0885,4.0891,4.0892,4.0931,4.0887,4.0888,4.0889,4.089,4.1012,4.1014,0,0,0,0,0,0,4.089,4.089,4.0924,4.0924,4.0889,4.0892,4.0892,4.0902,4.0897,4.0894,4.0885,4.0881,4.0889,4.089,4.0892,4.0951,4.0889,4.089,4.0891,4.101,4.1012,4.1015,0,0,0,0,0,0,4.0889,4.0893,4.0924,4.0906,4.0909,4.0895,4.0907,4.0903,4.0909,4.0897,4.0893,4.0894,4.0887,4.089,4.0922,4.0951,4.0891,4.0893,4.1007,4.1011,4.1014,4.107,0,0,0,0,0,0,4.0888,4.0893,4.0912,4.0907,4.0911,4.0954,4.0909,4.0905,4.0912,4.0907,4.0904,4.0901,4.0886,4.0919,4.0924,4.0952,4.0894,4.1005,4.1009,4.1013,4.1065,4.1075,4.1082,0,0,0,0,0,4.0886,4.0928,4.0914,4.0918,4.0934,4.0956,4.0958,4.0939,4.0915,4.0934,4.0926,4.0902,4.0947,4.0923,4.0928,4.0957,4.1003,4.1008,4.1012,4.1061,4.1073,4.1082,0,0,0,0,0,0,4.0936,4.0926,4.0911,4.0952,4.0955,4.0948,4.0971,4.0951,4.0961,4.0956,4.0932,4.0932,4.0969,4.0966,4.094,4.1006,4.0971,4.0976,4.1006,4.1017,4.1025,4.1025,4.0896,0,0,0,0,0,4.0952,4.097,4.0961,4.0998,4.1,4.0986,4.0994,4.098,4.0982,4.0983,4.0978,4.0981,4.0996,4.1006,4.1019,4.1065,4.1064,4.1087,4.1096,4.1103,4.1108,4.1133,4.1144,4.103,4.103,4.103,0,0,4.0984,4.0981,4.0994,4.1008,4.1009,4.1029,4.0987,4.101,4.1024,4.0986,4.1017,4.1014,4.1015,4.1055,4.1072,4.1054,4.114,4.1109,4.1115,4.1116,4.1139,4.115,4.1159,4.1033,4.1033,4.1032,0,0,4.1054,4.1053,4.1084,4.1087,4.1089,4.1079,4.1086,4.1082,4.1079,4.1109,4.1082,4.1099,4.1125,4.1127,4.1132,4.1204,4.1182,4.1209,4.1254,4.1278,4.1287,4.1295,4.1321,4.1331,4.1215,4.1215,4.1215,0,4.1094,4.1123,4.1103,4.1128,4.1135,4.1102,4.1134,4.1137,4.1143,4.1148,4.1128,4.1161,4.116,4.12,4.1218,4.1222,4.1231,4.1209,4.1287,4.1295,4.1302,4.1327,4.1337,4.1218,4.1218,4.1217,4.1217,0,4.1172,4.1193,4.1218,4.1226,4.1235,4.1263,4.1248,4.126,4.1245,4.1237,4.1269,4.1267,4.1279,4.1288,4.1273,4.1326,4.1315,4.1291,4.1255,4.1316,4.1339,4.1349,4.1223,4.1221,4.122,4.122,0,0,4.1272,4.127,4.1279,4.1283,4.1283,4.1299,4.1326,4.1338,4.135,4.1355,4.1377,4.1401,4.138,4.1385,4.137,4.1392,4.145,4.1366,4.1365,4.1382,4.1509,4.1527,4.1538,4.1435,4.1437,4.1439,4.1509,0,4.134,4.1387,4.137,4.1417,4.1436,4.1407,4.143,4.1433,4.1427,4.1442,4.1435,4.1452,4.1422,4.1426,4.1446,4.1439,4.1475,4.1433,4.1456,4.1457,4.1457,4.155,4.1569,4.1636,4.1518,4.1519,4.152,0,4.1426,4.1436,4.1486,4.1484,4.1491,4.1513,4.1524,4.1539,4.1542,4.1536,4.1543,4.1524,4.155,4.1514,4.155,4.1522,4.1531,4.1529,4.1531,4.1533,4.1493,4.1555,4.1657,4.1667,4.1534,4.1533,4.1532,0,4.1495,4.1521,4.1554,4.1558,4.1556,4.1572,4.1572,4.1573,4.1583,4.1592,4.1598,4.161,4.1617,4.1627,4.1612,4.1587,4.1651,4.1613,4.1647,4.1647,4.1661,4.1661,4.1767,4.1666,4.1666,4.1666,4.1666,0,4.1573,4.1605,4.1585,4.1606,4.164,4.1621,4.1656,4.1652,4.1654,4.1673,4.1648,4.1666,4.1645,4.1662,4.165,4.1683,4.1686,4.1682,4.1678,4.1684,4.1685,4.169,4.1685,4.1669,4.1668,4.1668,4.1667,0,4.1656,4.1644,4.1678,4.1675,4.1675,4.17,4.1697,4.1716,4.1708,4.1733,4.1738,4.1726,4.1744,4.173,4.1748,4.174,4.1783,4.1773,4.1782,4.178,4.1814,4.1812,4.1927,4.1942,4.1832,4.1833,4.1834,0,4.1707,4.1731,4.173,4.1741,4.1743,4.1762,4.1771,4.1753,4.1764,4.177,4.1788,4.1805,4.1817,4.1848,4.1841,4.1855,4.1845,4.1884,4.1847,4.1852,4.1846,4.1845,4.1848,4.1892,4.1893,4.1894,4.1895,0,4.1799,4.1792,4.1807,4.182,4.1832,4.1842,4.1849,4.186,4.1842,4.1855,4.1874,4.1884,4.1903,4.192,4.1931,4.1931,4.1911,4.1907,4.1916,4.1922,4.1927,4.1926,4.1804,4.1905,4.1904,4.1903,4.1903,4.1902,4.1867,4.1888,4.1891,4.1908,4.1912,4.192,4.1938,4.1933,4.1948,4.1963,4.1951,4.1974,4.1977,4.199,4.1993,4.2011,4.1994,4.2006,4.201,4.2013,4.2018,4.1924,4.2012,4.2012,4.2012,4.2012,4.2011,0,4.1959,4.1959,4.1976,4.1988,4.2002,4.1982,4.1989,4.2002,4.2023,4.2027,4.204,4.2063,4.2079,4.2073,4.2088,4.2103,4.2094,4.2108,4.2107,4.2107,4.2032,4.2023,4.2115,4.2115,4.2115,4.2115,4.2115,4.2115,4.2008,4.2041,4.2035,4.207,4.207,4.2093,4.2099,4.2106,4.211,4.2136,4.215,4.2147,4.2147,4.2162,4.2176,4.2174,4.2181,4.2198,4.2193,4.2123,4.2112,4.2103,4.2095,4.22,4.22,4.2267,4.2267,4.2268]}]]